{"data":{"norad_id":51885,"epoch":"2026-05-24T22:31:35.599008Z","epoch_age_seconds":87307,"freshness":"FRESH","line1":"1 51885U 22022AK  26144.93860647 -.00000536  00000+0 -15605-4 0  9991","line2":"2 51885  53.2137  16.8263 0001662  92.8013 267.3170 15.08844439234757","mean_motion":15.08844439,"eccentricity":0.0001662,"inclination_deg":53.2137,"raan_deg":16.8263,"arg_perigee_deg":92.8013,"mean_anomaly_deg":267.317,"bstar":-1.5605e-5,"rev_number":23475,"period_min":95.437273901766,"perigee_km":538.58007128461,"apogee_km":540.87957021583,"semimajor_km":6917.8668207502,"source":"CELESTRAK","updated_at":"2026-05-25T13:38:16.987135Z"}}